GFSMW_sfc_thetae_159.txt.gz
Theta_e
320 322 323 326 328 343 360 364 357 359 360 356 353 352 350 352 351 352 357 357 355 354 354 345 352 351 347 343 345 344 340 336 340 339 338 339 345 344 342 344 342 343 341
316 319 321 325 333 350 360 360 356 358 357 357 357 353 354 351 351 354 356 356 355 354 351 349 352 351 346 343 341 341 334 334 337 335 335 328 332 342 339 339 339 341 337
316 319 320 325 329 350 360 355 357 360 356 359 358 360 357 355 350 353 352 354 354 355 356 354 350 348 345 338 335 337 338 334 342 342 336 327 323 330 336 337 336 335 330
317 319 320 323 335 352 358 355 358 358 360 364 357 358 349 346 348 352 354 355 358 356 352 349 345 342 340 338 337 338 340 338 336 339 339 340 336 325 322 331 325 323 320
317 318 320 325 345 354 353 354 357 358 359 362 360 357 353 353 351 350 352 353 352 348 342 342 343 341 339 338 340 340 339 337 334 332 331 329 325 326 316 311 314 319 323
316 319 321 331 348 355 352 351 351 354 356 358 359 360 357 351 348 347 346 347 345 343 344 342 340 342 341 338 338 337 336 332 331 327 324 319 316 314 313 311 316 317 319
316 318 320 337 344 352 349 351 350 351 354 355 355 354 351 352 352 351 348 346 341 338 342 343 340 336 336 333 331 332 330 327 324 324 320 319 317 319 318 317 315 313 315
316 318 325 336 345 350 346 351 352 351 354 353 351 350 353 350 349 352 344 340 337 337 335 335 333 330 329 329 329 327 324 324 322 323 323 322 322 321 320 317 314 310 312
316 319 328 336 348 344 350 348 350 349 349 352 352 354 355 353 347 344 343 338 337 334 332 328 326 326 327 326 326 322 323 324 324 325 324 322 321 320 320 319 317 312 308
317 319 329 341 347 345 348 350 350 352 352 351 350 350 351 348 341 340 338 336 333 331 326 324 324 323 324 324 324 322 324 324 322 321 321 320 319 319 320 318 317 316 313
317 319 330 341 343 349 345 346 351 352 350 349 348 347 344 341 338 335 333 332 330 327 323 320 321 321 321 322 323 323 322 322 322 321 320 319 320 318 318 317 317 315 315
317 322 332 341 343 342 345 346 345 345 346 346 342 339 338 336 333 331 329 328 326 324 323 321 320 320 321 323 321 320 320 319 318 319 318 317 317 317 318 315 317 316 316
318 326 338 338 335 336 339 340 338 338 336 337 335 334 333 332 330 328 327 326 324 323 321 320 319 319 320 320 320 319 319 319 318 318 317 316 315 314 312 313 313 313 312
319 334 336 333 332 332 332 331 332 333 333 330 328 329 328 327 326 325 324 323 321 319 320 320 319 319 318 319 319 320 320 319 318 318 317 316 313 311 310 310 311 312 310
323 332 327 326 327 328 327 326 328 332 332 327 325 325 323 323 322 321 320 320 320 319 319 318 316 314 311 306 311 318 319 318 317 317 317 316 310 310 307 306 308 310 309
324 323 321 321 323 324 323 323 324 327 328 325 322 322 320 318 319 320 319 319 318 319 318 317 315 311 305 298 299 305 318 318 317 316 315 316 313 308 304 305 304 305 306
318 317 317 318 320 322 322 320 322 325 323 322 320 318 318 317 318 318 318 318 318 318 317 315 313 307 303 296 296 299 318 317 316 315 311 309 309 302 301 303 307 311 308
314 314 315 316 318 321 321 321 323 325 323 321 319 318 318 317 317 317 316 317 317 316 316 315 313 307 297 294 294 297 316 316 315 314 311 307 305 298 296 303 310 311 313
311 312 314 315 318 320 323 326 324 323 322 319 318 317 317 316 316 315 316 317 316 315 314 313 312 309 299 293 293 300 313 312 311 312 304 303 301 293 292 302 306 307 308
309 310 312 313 316 319 325 325 321 319 317 317 316 317 316 316 315 316 316 316 315 313 311 309 307 301 304 291 292 294 306 306 306 309 305 295 296 292 291 299 303 301 303
307 309 311 312 314 319 322 320 318 315 316 316 316 315 316 315 315 315 315 314 313 311 309 308 307 303 299 297 292 292 299 299 303 302 299 300 293 292 291 292 302 299 299
307 309 310 313 317 319 320 317 315 315 315 314 313 313 314 313 313 314 314 314 313 311 310 308 306 305 305 294 292 291 292 293 302 299 298 299 292 291 293 296 293 293 299
306 309 310 312 314 316 315 312 312 313 312 311 311 312 313 313 313 312 312 310 311 309 308 307 305 303 300 299 295 292 291 294 298 300 296 292 293 295 300 296 296 298 303
304 308 310 311 310 311 311 311 311 312 311 310 310 310 309 309 310 308 307 304 305 307 306 305 303 300 295 292 293 295 296 296 298 298 300 298 297 296 297 299 299 301 302
304 308 309 308 308 309 309 310 310 310 308 307 306 306 303 298 295 293 298 295 292 295 298 296 294 294 291 289 289 289 291 293 293 295 299 297 297 296 296 297 298 299 299
305 308 307 307 306 307 307 308 308 308 307 306 304 303 300 298 296 293 290 288 288 288 288 288 290 290 287 288 289 289 289 288 289 297 295 295 295 294 295 295 295 296 296

GFSMW_sfc_thetae_162.txt.gz
Theta_e
318 322 324 325 333 335 358 359 356 358 357 357 354 353 351 356 353 358 356 357 357 356 356 355 356 354 350 347 347 346 342 337 335 333 332 334 338 339 338 339 336 336 329
314 318 323 325 327 336 359 359 354 356 356 358 356 356 352 353 353 355 357 358 357 358 356 354 351 351 346 344 342 339 337 336 336 330 331 326 329 333 334 335 335 327 325
313 316 319 326 325 329 355 358 357 357 358 357 358 359 356 355 353 354 355 357 356 355 357 353 348 348 345 337 336 339 337 334 337 340 334 325 322 326 332 331 322 326 318
314 317 318 324 327 328 357 357 356 355 356 358 355 357 350 345 350 350 352 353 356 346 344 344 344 343 338 338 337 339 338 337 332 335 335 334 330 321 316 319 317 319 318
313 315 317 322 327 352 357 356 356 353 355 355 354 354 351 353 350 354 354 344 340 340 341 344 343 340 338 341 337 335 334 332 330 327 324 325 320 320 314 308 311 318 320
314 317 321 322 324 355 356 357 356 351 352 353 350 349 348 351 350 350 347 341 339 341 341 341 341 337 336 335 335 335 331 328 327 323 321 318 315 313 313 312 313 312 314
313 315 318 322 327 353 354 354 354 351 351 352 351 348 347 349 348 348 343 338 337 340 341 340 337 334 334 332 333 330 328 324 323 322 320 321 320 319 317 314 312 310 313
313 314 317 321 346 352 352 352 352 349 348 351 352 353 352 351 349 350 342 339 338 335 335 332 330 330 330 328 328 324 323 325 324 323 323 320 319 317 317 315 312 308 309
312 314 318 322 346 351 350 350 350 349 349 352 353 352 351 352 344 341 341 338 334 330 330 328 327 327 326 326 326 323 324 325 324 322 320 318 318 318 317 317 314 311 305
312 314 318 323 348 349 350 348 348 347 351 351 351 349 345 342 340 338 335 333 329 327 326 326 324 324 323 324 325 324 325 323 322 321 320 318 317 316 317 315 314 313 310
312 315 319 333 348 349 348 346 347 350 349 348 347 341 338 337 336 333 331 328 327 324 323 322 322 322 323 325 326 324 321 320 320 319 318 316 316 314 314 313 313 312 311
314 318 325 345 342 345 342 343 346 346 346 345 341 336 334 333 332 329 328 326 324 324 323 322 321 321 322 323 321 319 319 318 317 317 316 314 315 312 311 310 310 311 310
316 318 336 341 334 339 342 343 344 342 342 340 335 332 331 330 327 327 325 325 323 322 321 321 320 319 320 320 321 320 319 318 317 316 316 313 312 309 308 307 307 309 309
318 334 325 322 320 330 337 337 336 336 334 332 329 328 327 326 326 324 323 322 322 320 320 319 316 314 312 313 317 320 318 317 317 317 317 314 310 306 304 303 305 307 307
329 330 327 321 323 328 329 329 328 329 328 326 324 323 324 325 324 321 321 320 320 319 317 314 311 309 306 302 304 312 318 316 315 316 314 312 308 305 303 302 301 303 306
324 325 326 326 324 326 327 325 325 325 323 321 321 322 322 321 319 319 319 319 318 317 315 312 308 305 300 297 299 302 313 317 315 312 310 311 305 300 301 302 305 307 307
322 323 322 321 321 324 326 324 323 323 321 320 320 320 319 318 318 318 318 318 317 316 312 308 303 297 296 295 296 300 310 316 315 313 307 305 303 298 297 299 308 307 307
318 319 319 319 320 322 322 323 322 321 320 319 318 318 318 317 318 317 317 317 317 315 312 309 303 298 294 294 294 297 312 314 314 306 304 301 300 296 295 298 303 304 305
318 319 320 319 320 321 322 321 321 322 320 318 318 317 317 316 316 316 315 315 314 312 310 310 307 298 294 294 294 299 308 307 308 301 299 299 298 294 294 297 300 300 301
317 318 320 319 320 321 322 320 320 319 317 317 316 317 317 316 315 316 315 315 313 310 307 303 304 300 297 293 293 296 297 301 304 304 301 298 295 293 292 295 299 297 299
315 318 320 320 321 322 320 318 317 315 316 317 317 316 317 315 315 315 315 312 310 309 307 305 302 299 299 295 292 292 296 295 301 299 296 298 294 292 292 293 298 296 296
313 316 315 316 318 318 318 315 314 315 316 315 314 314 314 314 314 314 314 313 312 310 308 307 303 301 298 295 294 292 292 294 298 298 298 298 292 292 295 296 293 295 299
312 314 314 313 314 316 316 312 313 314 314 313 312 313 313 313 314 313 313 312 314 310 307 304 298 294 293 293 294 294 294 296 298 297 297 295 294 295 297 295 295 296 297
309 311 310 310 310 314 313 313 313 313 312 311 310 306 299 300 301 298 295 294 300 301 300 298 296 293 290 290 291 293 294 295 297 297 299 297 297 296 296 297 297 296 296
309 309 308 308 309 311 312 312 312 312 308 303 300 297 295 292 289 289 292 289 289 293 293 291 290 290 288 288 289 289 290 291 292 297 297 295 294 294 294 295 295 295 295
307 307 308 309 309 310 310 309 309 307 303 300 298 295 293 291 290 288 288 289 289 289 288 289 290 289 288 289 290 290 290 289 290 295 293 292 292 291 292 292 293 294 294

GFSMW_sfc_thetae_165.txt.gz
Theta_e
307 309 314 315 322 352 352 349 344 350 353 350 346 347 345 349 349 348 347 347 345 345 342 349 345 343 340 338 337 336 331 330 331 328 329 330 330 335 331 329 323 321 317
305 309 309 316 317 350 351 351 352 351 351 351 349 347 346 346 347 348 347 348 347 346 344 345 342 340 337 333 331 331 328 330 331 324 324 319 323 329 329 320 316 316 315
304 307 308 311 316 342 349 349 350 349 351 351 351 347 346 348 345 346 347 348 348 347 343 343 339 335 332 330 330 329 328 325 328 331 324 317 315 319 323 315 313 313 312
305 307 308 309 314 328 351 349 350 349 350 351 349 345 343 342 344 345 345 343 343 342 342 339 335 332 331 329 329 332 328 326 322 323 321 320 316 310 306 310 310 314 314
305 306 309 310 316 331 350 350 349 350 350 349 347 345 344 345 345 342 338 337 338 340 340 336 334 332 331 330 328 325 323 321 317 315 313 311 310 309 306 303 309 312 312
304 307 309 312 318 333 350 350 350 350 350 349 346 345 344 345 345 338 336 335 337 337 337 334 332 330 328 327 326 322 318 318 315 314 313 311 309 308 307 304 305 306 309
303 306 308 310 318 345 347 349 348 347 347 345 345 345 346 347 343 339 336 336 334 334 332 331 327 326 325 324 319 317 316 316 315 315 314 313 310 310 309 307 305 304 307
303 306 306 308 332 345 347 348 346 345 345 344 344 343 345 344 344 339 336 337 334 330 326 324 324 324 320 319 318 317 317 316 316 313 312 311 310 310 310 307 303 303 303
304 305 306 312 341 346 348 347 346 345 345 344 343 342 343 343 340 336 335 332 330 327 323 322 320 319 319 317 317 317 316 315 314 312 312 310 310 309 310 307 306 303 299
305 306 305 308 341 345 348 348 346 343 344 343 344 342 338 338 337 334 329 326 325 323 320 318 317 316 316 316 316 315 315 313 313 312 310 309 308 309 308 308 306 305 304
302 306 307 308 340 344 345 347 343 341 340 342 340 336 335 334 331 326 324 323 321 319 317 316 316 316 317 315 313 313 314 312 311 310 309 308 307 306 306 305 304 304 303
307 308 308 309 337 341 345 342 342 340 341 339 335 334 331 328 325 323 321 320 318 316 316 316 316 316 315 313 313 313 313 311 310 310 308 307 307 302 301 301 300 302 304
309 308 308 316 336 341 341 340 341 340 337 335 332 329 326 324 322 319 319 318 316 314 315 314 312 312 311 313 313 313 312 311 310 310 306 304 301 298 298 297 298 301 304
310 314 310 331 337 338 338 339 338 337 334 330 327 323 323 321 320 319 317 316 315 310 308 306 306 304 303 304 307 312 310 312 310 309 305 303 299 296 296 297 296 299 301
313 321 324 325 328 330 332 336 337 333 329 326 323 322 321 320 318 316 315 313 310 307 305 303 301 299 298 299 300 305 310 310 305 304 306 302 301 302 301 298 298 302 303
317 317 322 325 324 323 323 323 323 324 323 321 320 319 317 317 315 314 312 310 308 304 300 296 295 293 296 297 301 302 307 308 304 301 299 299 299 297 299 302 306 304 300
319 317 318 322 322 322 322 322 321 321 320 319 318 316 316 314 314 314 311 307 303 300 296 293 291 289 291 296 298 303 306 305 300 297 296 297 298 294 293 297 302 302 303
319 320 321 321 323 322 321 321 320 318 317 316 315 315 314 314 313 311 309 308 304 299 294 291 290 291 294 297 299 303 302 297 296 295 294 293 293 292 293 294 297 297 298
319 321 322 321 320 320 320 318 318 317 316 315 314 314 314 313 312 310 309 306 303 302 295 293 292 290 291 295 296 294 297 298 294 294 294 293 291 294 294 293 293 294 296
318 318 320 319 319 319 319 317 315 315 314 314 314 314 314 311 310 307 305 303 299 298 298 296 294 295 290 293 293 293 292 293 293 292 292 297 293 294 294 291 291 291 294
317 319 319 318 318 319 318 315 314 313 314 314 314 313 312 310 309 306 305 303 298 296 294 292 291 290 291 291 293 293 290 290 293 292 292 292 294 293 293 294 292 292 294
318 318 317 316 317 316 315 312 311 314 313 312 311 310 309 309 307 305 304 303 301 300 295 290 288 288 288 293 293 293 293 295 290 290 291 292 293 293 294 294 292 293 294
315 315 313 311 313 313 313 310 310 311 310 309 309 306 299 297 296 296 297 302 301 297 291 287 285 285 286 286 291 291 292 293 291 293 295 294 293 293 293 293 293 293 292
310 311 310 309 309 311 310 310 310 309 298 296 294 293 293 290 290 290 291 292 291 289 289 286 284 283 283 283 285 287 287 291 291 294 293 293 293 293 293 292 293 292 292
309 309 308 308 308 309 309 305 300 298 295 292 290 288 287 286 286 286 287 287 286 287 285 283 283 283 282 284 288 288 287 287 291 290 288 288 288 287 288 289 290 291 291
307 307 307 307 307 306 301 300 299 296 293 290 289 287 286 285 285 285 285 289 289 290 289 289 286 285 288 290 290 291 290 291 290 288 286 286 286 286 286 286 287 288 289

GFSMW_sfc_thetae_168.txt.gz
Theta_e
303 304 305 316 345 343 337 342 344 344 346 342 344 342 340 342 345 343 343 343 342 343 347 344 340 338 335 333 334 331 328 327 329 324 324 325 328 329 323 317 315 316 315
300 303 305 313 344 343 342 342 338 334 344 348 347 345 344 344 345 344 344 343 343 344 345 341 337 334 331 329 329 328 327 327 329 323 320 317 320 322 319 312 315 313 313
299 301 302 304 340 343 342 336 336 337 344 349 346 344 346 346 343 342 343 345 345 345 342 338 336 331 329 328 327 328 326 323 323 320 320 312 311 314 319 311 312 312 311
299 301 302 301 322 342 343 340 342 347 344 347 345 344 342 340 341 341 341 341 342 340 336 332 330 330 328 328 326 325 322 319 314 316 315 311 311 305 302 307 309 311 311
299 299 301 303 304 342 345 344 343 345 334 332 340 345 341 342 340 339 336 335 337 336 335 335 333 330 328 324 321 319 317 315 312 311 310 309 307 308 304 302 306 308 309
302 299 303 304 304 330 346 346 345 343 330 329 329 340 343 340 338 336 334 335 335 334 334 332 329 327 324 321 318 316 314 313 312 311 310 308 306 305 304 302 303 303 305
301 298 300 301 303 330 344 344 344 343 338 335 342 342 340 339 337 335 334 333 333 332 329 327 325 323 319 317 315 314 314 313 311 310 308 307 307 306 306 303 301 301 303
298 298 299 301 302 329 341 344 344 342 343 341 342 338 333 341 339 337 335 333 333 329 326 324 321 319 317 316 316 314 314 312 310 309 307 307 307 306 304 302 300 299 300
302 299 300 302 305 320 337 344 343 343 341 341 343 340 341 343 340 336 336 332 329 325 322 320 318 316 316 316 314 313 311 311 309 308 307 305 305 305 304 303 302 299 298
301 299 301 302 316 321 336 344 344 341 341 341 341 338 336 341 337 336 330 327 325 322 318 317 316 316 315 314 312 311 310 309 308 307 306 304 303 302 302 301 301 300 299
300 306 308 306 316 334 341 343 342 340 340 339 338 340 338 336 332 328 325 323 321 317 315 316 315 315 313 312 311 309 310 308 307 306 305 303 300 298 298 298 298 298 298
306 306 309 307 329 337 341 340 340 339 340 338 337 337 335 330 325 322 322 320 316 316 316 316 315 313 312 311 311 310 309 308 306 304 301 299 299 295 295 296 296 296 298
307 307 307 308 323 337 340 338 337 337 336 336 334 329 326 325 323 320 320 317 316 313 312 311 310 310 311 310 311 310 309 308 305 302 299 297 296 294 294 294 295 295 299
307 307 309 312 314 332 335 334 335 336 335 331 327 324 323 322 320 319 315 311 309 307 305 304 303 303 303 305 309 308 305 305 304 301 300 297 296 294 294 296 295 298 297
305 306 311 314 316 328 332 333 334 332 330 325 322 321 321 319 317 312 308 306 305 303 302 299 298 297 299 301 305 307 303 300 298 299 299 297 300 302 301 298 296 296 295
308 315 321 324 323 326 329 331 328 326 325 322 320 320 317 314 312 308 304 300 298 297 295 294 294 294 297 299 305 306 300 297 294 294 294 295 297 296 299 301 303 301 295
309 318 321 322 322 323 325 323 322 322 321 319 318 316 314 311 308 304 300 296 293 292 290 290 293 293 297 301 302 303 296 293 292 291 291 293 295 294 293 296 299 299 300
314 317 320 319 319 320 319 319 318 317 316 315 314 313 311 308 305 301 297 294 292 291 290 290 291 292 295 298 299 298 293 292 292 291 290 290 291 293 293 292 293 293 294
314 320 320 318 318 317 317 317 316 316 315 314 313 312 310 308 304 300 296 293 292 291 290 290 289 290 290 295 295 296 293 292 291 291 293 291 291 295 294 291 290 291 293
311 319 319 319 318 318 318 315 314 313 313 313 312 312 311 308 304 302 298 295 294 293 291 290 289 293 289 294 294 292 292 289 291 291 290 296 293 293 293 289 289 288 290
318 319 318 316 316 318 316 314 313 312 313 313 312 311 308 305 302 298 296 293 291 290 289 287 286 287 289 290 293 293 290 288 290 290 289 291 293 293 292 293 290 289 291
318 317 316 315 316 315 314 312 311 313 313 312 310 308 306 303 300 297 295 295 290 287 285 285 285 285 284 291 292 293 293 292 289 288 288 290 292 291 292 292 291 291 292
316 316 314 313 313 313 313 311 311 312 310 308 304 301 301 302 302 300 297 292 288 285 285 285 284 283 283 285 291 292 293 294 290 290 292 291 290 290 290 291 291 291 289
311 312 311 310 309 311 311 311 309 304 300 296 294 294 293 292 293 295 293 290 287 285 285 284 283 283 285 285 285 287 287 291 289 289 287 290 290 290 289 288 289 288 289
309 310 308 307 305 303 302 303 302 298 294 292 291 289 288 287 286 287 287 285 284 287 284 281 282 286 286 285 288 287 286 285 288 286 285 284 284 284 284 285 286 287 287
308 307 303 301 300 299 298 298 297 295 291 289 288 288 287 287 286 286 286 290 289 289 288 288 287 287 289 291 290 290 289 289 288 285 283 282 282 282 282 282 283 285 286

GFSMW_sfc_thetae_171.txt.gz
Theta_e
300 300 303 321 339 340 340 340 338 338 339 339 339 338 336 338 342 343 342 340 341 346 342 340 338 336 334 332 332 329 326 327 327 323 322 324 325 316 314 313 313 313 314
299 301 302 316 337 338 341 336 335 331 339 340 342 342 340 341 342 342 341 340 345 346 342 338 335 331 329 328 327 326 325 322 321 321 317 314 318 319 313 311 313 311 312
300 300 300 313 336 335 336 340 339 339 340 340 344 342 343 343 341 340 341 343 346 345 340 336 333 329 328 327 326 326 324 320 319 315 317 310 309 310 314 310 310 310 309
300 300 299 299 333 338 337 340 333 333 338 342 341 341 339 338 340 341 340 341 343 338 336 332 330 329 328 324 321 320 318 315 311 311 311 309 308 303 300 306 307 309 309
299 302 300 300 311 338 339 338 335 332 338 343 343 342 340 340 341 339 336 335 334 334 333 331 330 327 323 320 316 314 313 312 310 308 308 308 306 305 303 300 303 305 307
299 300 302 302 302 323 339 336 335 337 339 344 339 336 339 339 337 336 334 333 333 332 332 330 327 323 319 317 315 314 313 310 309 308 307 305 303 303 302 300 300 300 303
297 298 299 300 301 312 337 338 334 338 336 339 333 341 339 337 336 336 333 332 331 329 327 327 324 320 316 315 314 313 311 309 308 306 305 305 304 303 302 300 299 298 301
298 298 297 300 301 315 335 339 338 336 330 330 329 337 340 336 335 337 335 333 331 328 326 322 319 317 316 315 313 312 310 308 307 305 304 302 302 301 301 300 297 296 297
301 299 297 298 301 314 333 338 340 338 328 328 331 338 338 336 335 336 335 333 329 325 321 319 317 317 316 313 311 311 309 308 305 303 302 300 299 299 299 299 299 297 295
303 301 298 298 302 307 328 339 339 341 332 330 337 337 339 338 337 336 332 328 325 321 318 316 316 316 315 313 312 309 307 306 304 303 298 297 297 297 297 298 297 297 296
302 303 302 305 306 307 313 337 340 341 339 337 337 336 339 337 335 330 326 323 319 317 316 316 315 313 311 310 309 308 307 305 302 299 297 296 295 294 295 295 295 295 295
304 305 302 306 310 312 325 337 340 340 339 340 336 338 337 332 326 324 321 319 316 317 316 315 313 312 311 310 309 308 307 303 300 297 296 295 298 294 294 294 294 294 295
304 305 304 306 309 323 333 339 340 340 338 336 335 333 328 324 323 320 318 317 317 315 313 312 311 312 311 309 308 307 304 301 299 297 295 295 295 294 293 294 294 294 297
304 304 305 307 309 317 335 336 338 339 337 335 333 327 324 322 319 318 317 314 313 309 308 307 307 307 308 308 306 305 302 301 299 298 296 296 296 295 295 295 294 295 294
305 305 305 308 313 318 330 335 335 336 335 327 324 322 320 318 315 313 312 310 306 304 304 302 301 302 304 306 302 299 296 294 294 295 295 296 300 302 300 297 294 293 292
306 308 309 317 315 323 328 330 330 329 326 322 319 316 313 312 309 307 304 302 300 299 299 298 299 299 301 304 303 297 293 293 292 291 291 293 296 296 298 300 300 298 292
305 307 313 319 322 325 327 326 325 324 321 317 315 313 310 308 306 303 299 296 295 295 295 296 299 299 301 299 299 298 292 290 289 289 289 292 294 294 291 294 296 295 298
307 312 319 322 324 324 323 322 321 319 316 313 311 309 306 303 300 297 295 294 294 293 293 293 294 296 297 297 296 296 291 290 290 290 289 289 289 292 291 290 290 291 291
307 311 319 319 319 318 318 318 316 315 313 311 309 307 304 299 297 295 294 292 291 291 290 291 291 292 291 296 296 293 290 289 288 290 292 290 289 294 294 289 288 289 291
308 315 317 316 315 315 315 314 313 312 310 308 305 304 301 297 294 293 292 292 291 290 290 289 290 293 290 294 294 291 289 287 288 288 289 294 292 292 292 287 286 287 288
309 316 315 313 313 314 313 311 311 310 310 309 305 302 299 297 296 294 291 290 289 288 288 287 286 288 289 291 293 293 287 287 287 287 286 288 292 291 291 291 288 287 290
315 316 315 315 316 316 314 311 309 309 308 306 303 300 298 296 294 293 289 288 288 287 286 285 285 286 287 294 293 293 292 290 285 285 285 286 290 289 290 289 290 290 290
314 315 313 313 314 315 313 309 309 308 306 304 300 297 296 295 293 289 287 286 287 286 285 286 285 285 285 286 292 292 292 292 286 287 289 289 288 288 287 289 289 289 287
311 312 312 310 309 311 310 309 309 306 303 300 299 298 297 294 291 289 287 286 286 286 286 285 284 284 284 284 284 285 285 288 286 286 285 287 287 288 286 286 286 286 286
311 311 309 308 307 306 303 302 302 300 298 297 296 294 291 288 286 286 285 285 284 286 285 282 285 285 284 285 287 285 284 283 286 282 282 281 281 281 282 282 283 284 284
303 302 301 301 300 300 299 300 300 298 296 293 292 290 288 286 287 286 286 290 289 289 289 289 288 287 289 289 289 288 288 287 286 281 279 279 279 279 279 280 281 282 283